Simultaneous Nadir Overpasses (SNOs) Predictions

Prediction of SNOs between GOES-16 and LANDSAT-8 Satellite Orbit:

Table of predicted SNOs for the next 14.0 days since TLE Epoch: 6/29/2020
Index Date Time (GOES-16) GOES-16 Lat,Lon LANDSAT-8 Lat,Lon Distance(km) Time Diff (sec)
1 07/01/2020 03:09:23 -0.01, -75.19 0.08, -74.67 58.75 80
2 07/03/2020 02:57:13 -0.02, -75.20 0.73, -71.72 395.98 80
3 07/03/2020 15:18:29 0.02, -75.22 0.36, -76.88 188.74 80
4 07/05/2020 15:08:59 0.01, -75.23 -0.30, -73.93 148.85 80
5 07/06/2020 03:30:23 -0.01, -75.22 -0.83, -79.11 442.19 80
6 07/07/2020 14:56:48 0.00, -75.25 -0.89, -70.96 487.07 80
7 07/08/2020 03:18:13 -0.00, -75.25 -0.18, -76.16 103.78 80
8 07/10/2020 03:03:23 0.01, -75.28 0.48, -73.21 235.39 80
9 07/10/2020 15:24:39 -0.01, -75.30 0.61, -78.37 348.87 80
10 07/12/2020 15:15:08 -0.02, -75.34 0.01, -75.41 8.81 80
